Location: 237-227 Winthrop St, Rehoboth, MA 02769, USA
(41.8544°N, 71.2370°W)
Time: 14:43:48
(UTC-05:00)

ISS - Visible Passes

Search period start: 29 January 2023 00:00
Search period end: 08 February 2023 00:00
Orbit: 413 x 419 km, 51.6° (Epoch: 29 January)

Date Brightness Start Highest point End Pass type
(mag) Time Alt. Az. Time Alt. Az. Time Alt. Az.
29 Jan -2.1 17:58:21 10° NW 18:01:00 21° NNE 18:02:10 18° NE visible
29 Jan -0.5 19:34:44 10° NW 19:35:05 12° NW 19:35:05 12° NW visible
30 Jan -2.9 18:46:07 10° NW 18:48:40 41° NNW 18:48:40 41° NNW visible
31 Jan -2.9 17:57:30 10° NW 18:00:38 34° NNE 18:02:20 21° ENE visible
31 Jan -0.8 19:34:16 10° WNW 19:35:15 17° W 19:35:15 17° W visible
01 Feb -3.4 18:45:23 10° WNW 18:48:42 61° SW 18:49:03 56° S visible
02 Feb -3.8 17:56:35 10° NW 17:59:58 78° NE 18:03:02 12° ESE visible
02 Feb -0.6 19:34:39 10° WSW 19:35:59 13° SW 19:35:59 13° SW visible
03 Feb -1.4 18:44:58 10° W 18:47:38 22° SW 18:50:12 11° S visible
04 Feb -2.3 17:55:47 10° WNW 17:58:57 38° SW 18:02:05 10° SSE visible
06 Feb -0.6 17:55:41 10° W 17:57:35 14° SW 17:59:28 10° SSW visible
